When you browse on this site, cookies collect data to enhance your experience and personalize the content and advertising you see.
Visit our Privacy Policy to learn more. By continuing to use the site, you agree to this use of cookies and data.
  • In Hungary
  • List of Countries
  • For 7 days
  • Water Temperature
  • Satellite Maps
  • Weather Map
  • News
  • Weather Widgets
  • user-avatar
    Login

    Hourly Weather Channapatna

    Today, 19 November, Monday

    Time Temperature Precipitation Wind Pressure Humidity
    00:00 +23°C° 0 mm 2 mps 702 mmHg 93%
    01:00 +23°C° 0 mm 2 mps 702 mmHg 94%
    02:00 +21°C° 0 mm 2 mps 702 mmHg 95%
    03:00 +21°C° 0 mm 2 mps 702 mmHg 96%
    04:00 +21°C° 0 mm 2 mps 702 mmHg 96%
    05:00 +22°C° 0 mm 1 mps 702 mmHg 95%
    06:00 +23°C° 0 mm 2 mps 703 mmHg 91%
    07:00 +24°C° 0 mm 2 mps 703 mmHg 87%
    08:00 +25°C° 0 mm 2 mps 704 mmHg 83%
    09:00 +26°C° 0 mm 2 mps 704 mmHg 76%
    10:00 +28°C° 0 mm 2 mps 704 mmHg 68%
    11:00 +29°C° 0 mm 3 mps 704 mmHg 61%
    12:00 +30°C° 0.1 mm 2 mps 703 mmHg 60%
    13:00 +30°C° 0.1 mm 2 mps 703 mmHg 60%
    14:00 +30°C° 0.1 mm 2 mps 702 mmHg 60%
    15:00 +29°C° 0.4 mm 2 mps 702 mmHg 64%
    16:00 +28°C° 0.4 mm 2 mps 702 mmHg 69%
    17:00 +27°C° 0.4 mm 2 mps 702 mmHg 74%
    18:00 +26°C° 0.5 mm 2 mps 703 mmHg 79%
    19:00 +25°C° 0.5 mm 2 mps 703 mmHg 83%
    20:00 +24°C° 0.5 mm 3 mps 703 mmHg 88%
    21:00 +24°C° 0 mm 2 mps 703 mmHg 90%
    22:00 +23°C° 0 mm 2 mps 703 mmHg 91%
    23:00 +23°C° 0 mm 2 mps 703 mmHg 93%

    Tomorrow, 20 November, Tuesday

    Time Temperature Precipitation Wind Pressure Humidity
    00:00 +23°C° 0 mm 2 mps 703 mmHg 94%
    01:00 +21°C° 0 mm 2 mps 703 mmHg 95%
    02:00 +21°C° 0 mm 2 mps 702 mmHg 95%
    03:00 +21°C° 0 mm 2 mps 702 mmHg 95%
    04:00 +21°C° 0 mm 2 mps 702 mmHg 95%
    05:00 +21°C° 0 mm 2 mps 703 mmHg 95%
    06:00 +21°C° 0 mm 2 mps 703 mmHg 91%
    07:00 +23°C° 0 mm 2 mps 704 mmHg 88%
    08:00 +24°C° 0 mm 2 mps 704 mmHg 84%
    09:00 +26°C° 0 mm 2 mps 704 mmHg 77%
    10:00 +27°C° 0 mm 3 mps 704 mmHg 70%
    11:00 +28°C° 0 mm 3 mps 704 mmHg 63%
    12:00 +29°C° 0 mm 3 mps 704 mmHg 60%
    13:00 +29°C° 0 mm 3 mps 703 mmHg 58%
    14:00 +30°C° 0 mm 3 mps 702 mmHg 56%
    15:00 +29°C° 0.1 mm 2 mps 702 mmHg 61%
    16:00 +28°C° 0.1 mm 2 mps 702 mmHg 66%
    17:00 +27°C° 0.1 mm 2 mps 702 mmHg 71%
    18:00 +26°C° 0.2 mm 2 mps 703 mmHg 75%
    19:00 +25°C° 0.2 mm 2 mps 703 mmHg 78%
    20:00 +24°C° 0.2 mm 2 mps 704 mmHg 82%
    21:00 +24°C° 0 mm 2 mps 704 mmHg 84%
    22:00 +23°C° 0 mm 2 mps 704 mmHg 87%
    23:00 +23°C° 0 mm 2 mps 704 mmHg 89%

    Day after tomorrow, 21 November, Wednesday

    Time Temperature Precipitation Wind Pressure Humidity
    00:00 +22°C° 0 mm 1 mps 703 mmHg 90%
    01:00 +22°C° 0 mm 1 mps 703 mmHg 91%
    02:00 +21°C° 0 mm 1 mps 702 mmHg 92%
    03:00 +21°C° 0 mm 1 mps 702 mmHg 92%
    04:00 +20°C° 0 mm 1 mps 702 mmHg 92%
    05:00 +19°C° 0 mm 2 mps 702 mmHg 92%
    06:00 +20°C° 0 mm 2 mps 703 mmHg 87%
    07:00 +23°C° 0 mm 2 mps 704 mmHg 83%
    08:00 +24°C° 0 mm 2 mps 704 mmHg 78%
    09:00 +25°C° 0.1 mm 3 mps 704 mmHg 74%
    10:00 +26°C° 0.1 mm 3 mps 704 mmHg 71%
    11:00 +28°C° 0.1 mm 4 mps 704 mmHg 67%
    12:00 +28°C° 1 mm 4 mps 703 mmHg 67%
    13:00 +28°C° 1 mm 4 mps 702 mmHg 67%
    14:00 +28°C° 1 mm 4 mps 701 mmHg 67%
    15:00 +27°C° 1.5 mm 4 mps 701 mmHg 73%
    16:00 +26°C° 1.5 mm 4 mps 701 mmHg 78%
    17:00 +25°C° 1.5 mm 3 mps 701 mmHg 84%
    18:00 +24°C° 0.5 mm 3 mps 702 mmHg 86%
    19:00 +24°C° 0.5 mm 3 mps 703 mmHg 88%
    20:00 +22°C° 0.5 mm 3 mps 704 mmHg 91%
    21:00 +22°C° 0 mm 3 mps 704 mmHg 91%
    22:00 +23°C° 0 mm 2 mps 704 mmHg 92%
    23:00 +21°C° 0 mm 2 mps 704 mmHg 92%

    22 November, Thursday

    Time Temperature Precipitation Wind Pressure Humidity
    00:00 +21°C° 0.1 mm 2 mps 703 mmHg 92%
    01:00 +21°C° 0.1 mm 2 mps 703 mmHg 92%
    02:00 +21°C° 0.1 mm 2 mps 702 mmHg 93%
    03:00 +21°C° 0.1 mm 3 mps 702 mmHg 92%
    04:00 +21°C° 0.1 mm 3 mps 702 mmHg 92%
    05:00 +21°C° 0.1 mm 3 mps 702 mmHg 92%
    06:00 +21°C° 0.1 mm 4 mps 703 mmHg 90%
    07:00 +22°C° 0.1 mm 4 mps 703 mmHg 88%
    08:00 +23°C° 0.1 mm 5 mps 704 mmHg 85%
    09:00 +22°C° 0.6 mm 5 mps 704 mmHg 86%
    10:00 +22°C° 0.6 mm 4 mps 704 mmHg 87%
    11:00 +22°C° 0.6 mm 4 mps 703 mmHg 88%
    12:00 +23°C° 0.6 mm 4 mps 703 mmHg 87%
    13:00 +23°C° 0.6 mm 4 mps 702 mmHg 86%
    14:00 +25°C° 0.6 mm 4 mps 702 mmHg 84%
    15:00 +25°C° 0.5 mm 4 mps 702 mmHg 86%
    16:00 +23°C° 0.5 mm 4 mps 702 mmHg 87%
    17:00 +23°C° 0.5 mm 4 mps 702 mmHg 89%
    18:00 +23°C° 0.2 mm 4 mps 702 mmHg 90%
    19:00 +22°C° 0.2 mm 4 mps 703 mmHg 91%
    20:00 +22°C° 0.2 mm 4 mps 704 mmHg 92%
    21:00 +22°C° 0 mm 4 mps 704 mmHg 93%
    22:00 +21°C° 0 mm 3 mps 704 mmHg 93%
    23:00 +21°C° 0 mm 3 mps 704 mmHg 94%

    23 November, Friday

    Time Temperature Precipitation Wind Pressure Humidity
    00:00 +21°C° 0 mm 3 mps 704 mmHg 94%
    01:00 +21°C° 0 mm 3 mps 703 mmHg 94%
    02:00 +21°C° 0 mm 3 mps 703 mmHg 94%
    03:00 +21°C° 0 mm 3 mps 703 mmHg 94%
    04:00 +21°C° 0 mm 3 mps 703 mmHg 94%
    05:00 +21°C° 0 mm 3 mps 703 mmHg 94%
    06:00 +22°C° 0 mm 3 mps 704 mmHg 91%
    07:00 +22°C° 0 mm 4 mps 705 mmHg 88%
    08:00 +23°C° 0 mm 4 mps 705 mmHg 86%
    09:00 +25°C° 0 mm 4 mps 705 mmHg 80%
    10:00 +27°C° 0 mm 5 mps 705 mmHg 75%
    11:00 +28°C° 0 mm 5 mps 705 mmHg 70%
    12:00 +28°C° 0.5 mm 4 mps 705 mmHg 69%
    13:00 +29°C° 0.5 mm 4 mps 704 mmHg 68%
    14:00 +29°C° 0.5 mm 4 mps 703 mmHg 67%
    15:00 +28°C° 1.1 mm 3 mps 703 mmHg 71%
    16:00 +27°C° 1.1 mm 3 mps 703 mmHg 76%
    17:00 +26°C° 1.1 mm 3 mps 703 mmHg 81%
    18:00 +25°C° 0.6 mm 3 mps 704 mmHg 83%
    19:00 +24°C° 0.6 mm 3 mps 704 mmHg 86%
    20:00 +24°C° 0.6 mm 3 mps 705 mmHg 89%
    21:00 +22°C° 0 mm 3 mps 705 mmHg 90%
    22:00 +23°C° 0 mm 2 mps 705 mmHg 91%
    23:00 +21°C° 0 mm 2 mps 705 mmHg 92%

    24 November, Saturday

    Time Temperature Precipitation Wind Pressure Humidity
    00:00 +21°C° 0 mm 2 mps 704 mmHg 91%
    01:00 +21°C° 0 mm 2 mps 704 mmHg 91%
    02:00 +20°C° 0 mm 2 mps 703 mmHg 91%
    03:00 +20°C° 0 mm 2 mps 704 mmHg 90%
    04:00 +19°C° 0 mm 2 mps 704 mmHg 89%
    05:00 +19°C° 0 mm 2 mps 704 mmHg 88%
    06:00 +20°C° 0 mm 2 mps 704 mmHg 83%
    07:00 +21°C° 0 mm 2 mps 705 mmHg 78%
    08:00 +24°C° 0 mm 2 mps 706 mmHg 73%
    09:00 +25°C° 0 mm 2 mps 706 mmHg 65%
    10:00 +27°C° 0 mm 2 mps 706 mmHg 58%
    11:00 +29°C° 0 mm 2 mps 706 mmHg 50%
    12:00 +29°C° 0 mm 2 mps 705 mmHg 49%
    13:00 +30°C° 0 mm 2 mps 704 mmHg 47%
    14:00 +30°C° 0 mm 2 mps 703 mmHg 46%
    15:00 +29°C° 0 mm 2 mps 703 mmHg 51%
    16:00 +28°C° 0 mm 1 mps 703 mmHg 55%
    17:00 +27°C° 0 mm 1 mps 704 mmHg 60%
    18:00 +27°C° 0 mm 1 mps 704 mmHg 61%
    19:00 +26°C° 0 mm 1 mps 705 mmHg 62%
    20:00 +25°C° 0 mm 1 mps 705 mmHg 64%
    21:00 +24°C° 0 mm 1 mps 705 mmHg 67%
    22:00 +24°C° 0 mm 1 mps 705 mmHg 69%
    23:00 +23°C° 0 mm 1 mps 705 mmHg 72%
    Show more